This demonstration page uses our WeatherBlox Daily Observations layout. Learn more.

Left ArrowRight Arrow

Hourly Observations for May 21, 2022

Temp ( °F °C ) Dew Point ( °F °C ) Humidity (%) Winds ( mph kmh ) Pressure ( in mb ) Visibility ( mi km ) Precip ( " mm )
12:56 am 00:56 Cloudy 49 9.4 35 1.7 59 59 N 14 22 30.04 1017 10 16 0.00 0.00
1:56 am 01:56 Cloudy 47 8.3 35 1.7 63 63 N 17 28 30.06 1018 10 16 0.00 0.00
2:56 am 02:56 Cloudy 47 8.3 34 1.1 61 61 N 16 26 30.06 1018 10 16 0.00 0.00
3:56 am 03:56 Cloudy 46 7.8 34 1.1 63 63 N 15 24 30.06 1018 10 16 0.00 0.00
4:56 am 04:56 Cloudy 45 7.2 32 0 61 61 N 17 28 30.09 1019 10 16 0.00 0.00
5:56 am 05:56 Cloudy 45 7.2 32 0 61 61 N 15 24 30.12 1020 10 16 0.00 0.00
6:56 am 06:56 Cloudy with Light Rain 44 6.7 33 0.6 65 65 N 14 22 30.15 1021 10 16 0.00 0.00
7:56 am 07:56 Cloudy 45 7.2 33 0.6 63 63 N 12 19 30.19 1022 10 16 0.00 0.00
8:56 am 08:56 Mostly Cloudy 46 7.8 34 1.1 63 63 N 14 22 30.21 1023 10 16 0.00 0.00
9:56 am 09:56 Mostly Cloudy 48 8.9 33 0.6 56 56 N 16 26 30.23 1024 10 16 0.00 0.00
10:56 am 10:56 Mostly Cloudy 48 8.9 33 0.6 56 56 NNW 12 19 30.24 1024 10 16 0.00 0.00
11:56 am 11:56 Cloudy 50 10 32 0 50 50 NNW 8 13 30.25 1024 10 16 0.00 0.00
12:56 pm 12:56 Cloudy 52 11.1 28 -2.2 40 40 NNW 13 20 30.24 1024 10 16 0.00 0.00
1:56 pm 13:56 Cloudy 53 11.7 30 -1.1 41 41 NW 13 20 30.24 1024 10 16 0.00 0.00
2:56 pm 14:56 Mostly Cloudy 54 12.2 27 -2.8 35 35 NNW 13 20 30.24 1024 10 16 0.00 0.00
3:56 pm 15:56 Mostly Cloudy 57 13.9 27 -2.8 32 32 NW 13 20 30.23 1024 10 16 0.00 0.00
4:56 pm 16:56 Mostly Cloudy 55 12.8 28 -2.2 35 35 WNW 12 19 30.24 1024 10 16 0.00 0.00
5:56 pm 17:56 Mostly Cloudy 57 13.9 28 -2.2 33 33 WNW 12 19 30.22 1024 10 16 0.00 0.00
6:56 pm 18:56 Sunny 57 13.9 27 -2.8 32 32 NNW 12 19 30.22 1024 10 16 0.00 0.00
7:56 pm 19:56 Mostly Sunny 56 13.3 27 -2.8 33 33 N 13 20 30.25 1024 10 16 0.00 0.00
8:56 pm 20:56 Clear 49 9.4 29 -1.7 46 46 N 8 13 30.27 1025 10 16 0.00 0.00
9:56 pm 21:56 Clear 49 9.4 28 -2.2 44 44 N 6 9 30.29 1026 10 16 0.00 0.00
10:56 pm 22:56 Clear 47 8.3 28 -2.2 48 48 N 3 6 30.32 1027 10 16 0.00 0.00
11:56 pm 23:56 Clear 45 7.2 29 -1.7 54 54 Calm 30.34 1028 10 16 0.00 0.00

Powered by AerisWeather